Location: Gwatt
(46.7204°N, 7.6223°E)
Time: 13:37:10
(UTC+00:00)

S-56A Canister/Altair - Pass Details

Date: 29 January 2021
Orbit: 632 x 2501 km, 38.9° (Epoch: 28 February)

Event Time Altitude Azimuth Distance (km) Brightness Sun altitude
Rises 04:27:14 0° 263° (W) 2,919 - -25.7°
Reaches altitude 10° 04:29:55 10° 247° (WSW) 2,015 - -25.3°
Maximum altitude 04:33:16 21° 198° (SSW) 1,506 - -24.7°
Exits shadow 04:33:52 20° 187° (S) 1,547 9.0 -24.6°
Drops below altitude 10° 04:36:59 10° 149° (SSE) 2,271 10.3 -24.1°
Sets 04:40:15 0° 134° (SE) 3,422 11.6 -23.5°
